Regional Weather Roundup
Issued by NWS

Home | Current Version | Previous Version | Graphics & Text | Print | Product List | Glossary On
Versions: 1 2 3 4 5 6 7 8 9 10 11 12 13 14 15 16 17 18 19 20 21 22 23 24 25 26 27
000
ASUS45 KCYS 262310
RWRWY

WYOMING REGIONAL WEATHER ROUNDUP
NATIONAL WEATHER SERVICE CHEYENNE WY
500 PM MDT WED APR 26 2017

NOTE:  "FAIR" INDICATES FEW OR NO CLOUDS BELOW 12,000 FEET
WITH NO SIGNIFICANT WEATHER AND/OR OBSTRUCTIONS TO VISIBILITY.

WYZ001-270000-
YELLOWSTONE NATIONAL PARK

CITY           SKY/WX    TMP DP  RH WIND       PRES   REMARKS
LK YELLOWSTONE   N/A     33  28  81 MISG      29.72F
W YELLOWSTONE  NOT AVBL

$$
WYZ002>013-054>058-071-098>099-270000-
NORTHERN WYOMING

CITY           SKY/WX    TMP DP  RH WIND       PRES   REMARKS
JACKSON        FLURRIES  43  34  70 SW8       29.71F
CODY           FAIR      55  32  41 E8        29.62F
GREYBULL       FAIR      51  36  56 S8        29.64R
WORLAND        RAIN      48  39  71 NW3       29.65R
SHERIDAN       FAIR      36  29  75 E3        29.69F
BUFFALO        FAIR      38  31  76 N6        29.68S WCI  33
GILLETTE       FAIR      43  35  73 N7        29.68F
HULETT         FAIR      43  34  70 N7        29.71S
NEWCASTLE      FAIR      52  28  40 W9G18     29.67S

$$
WYZ014>020-022>026-101>103-270000-
CENTRAL WYOMING

CITY           SKY/WX    TMP DP  RH WIND       PRES   REMARKS
BIG PINEY      PTSUNNY   46  26  45 W10       29.73F
PINEDALE       MOCLDY    43  28  56 NW15G21   29.74F
DUBOIS         CLOUDY    43  19  39 W22       29.67F
LANDER         PTSUNNY   54  25  32 N8        29.61F
RIVERTON       PTSUNNY   53  24  32 NW8       29.62F
CASPER         CLOUDY    54  30  40 W13       29.64F
DOUGLAS        CLOUDY    54  29  38 NW14      29.65F

$$
WYZ021-027>030-104>119-270000-
SOUTHERN WYOMING

CITY           SKY/WX    TMP DP  RH WIND       PRES   REMARKS
EVANSTON       CLOUDY    42  29  59 SW17      29.78F
KEMMERER         N/A     41  30  65 SW18      29.77S
FORT BRIDGER   MOCLDY    46  28  49 W18G29    29.81S
ROCK SPRINGS   FAIR      42  31  64 W20       29.75F
DIXON            N/A     49  32  52 W18       29.76F
RAWLINS        LGT RAIN  39  34  82 NW18      29.71F WCI  30
SARATOGA       MOCLDY    43  34  70 SW20      29.75F THUNDER
LARAMIE        CLOUDY    40  28  62 SW17      29.72S WCI  31
CHEYENNE       PTSUNNY   50  24  36 NW13G21   29.70F
TORRINGTON     PTSUNNY   54  34  46 NE14      29.64F
PINE BLUFFS    MOCLDY    50  32  50 NW13G21   29.69F

$$




USA.gov is the U.S. government's official web portal to all federal, state and local government web resources and services.